www.pogodaiklimat.ru

ПОГОДА в Шони, OK

  • Прогноз погоды в Шони
  • Монитор погоды в Шони
  • Климат в Шони

АРХИВ ПОГОДЫ в Шони

Время (UTC), дата Ветер
(напр.,м/с)
 
Видим.   Явления Облачность Т
(С)
Тd
(С)
f
(%)
Тe
(С)
Тes
(С)
Комфортность

P
(гПа)

Po
(гПа)
Тmin
(С)
Tmax
(С)
R
(мм)
SD
(см)
05:15 26.03 С  16 км    10/10 930 м  +8.1  +6.3  88  +6  +6      987.8         
05:35 26.03 С  16 км    5/5 930 м  +7.2  +5.8  91  +4  +4      987.8         
05:55 26.03 С  16 км    ясно  +6.6  +5.3  91  +3  +3      987.8         
06:15 26.03 С  16 км    ясно  +6.5  +5.4  93  +5  +5      987.8         
06:35 26.03 СВ  16 км    ясно  +6.6  +5.5  93  +5  +5      987.8         
06:55 26.03   16 км    ясно  +6.7  +5.5  92  +6  +6      987.8         
07:15 26.03   16 км    ясно  +6.4  +5.3  93  +5  +5      987.4         
07:35 26.03   11 км    ясно  +6.1  +5.5  96  +5  +5      987.4         
07:55 26.03   11 км    ясно  +5.5  +4.9  96  +4  +4      987.4         
08:15 26.03   11 км    ясно  +4.9  +4.4  97  +4  +4      987.4         
08:35 26.03   11 км    ясно  +5.5  +4.9  96  +4  +4      987.4         
08:55 26.03   6 км  дымка  ясно  +5.0  +4.5  97  +4  +4      987.4         
09:15 26.03   2 км  дымка  ?/?  +4.3  +4.0  98  +3  +3      987.8         
09:35 26.03   8 км  дымка  5/0 3600 м
[средняя] 
+4.4  +3.9  97  +3  +3      987.8         
09:55 26.03 СВ  11 км    ясно  +4.3  +3.8  97  +2  +2      988.1         
10:15 26.03 СВ  6 км  дымка  ясно  +5.0  +4.5  97  +2  +2      988.1         
10:35 26.03 С  2 км  дымка  ?/?  +4.5  +4.0  97  +1  +1      988.4         
10:55 26.03 С  800 м  туман  ?/?  +4.3  +4.0  98  +2  +2      988.7  +4.2  +8.5     
11:15 26.03 С  2 км  дымка  ?/?  +4.0  +3.7  98  +1  +1      988.7         
11:35 26.03 С  2 км  дымка  ?/?  +4.1  +3.8  98  +2  +2      988.7         
11:55 26.03 С  3 км  дымка  ясно  +4.0  +3.7  98  +1  +1      989.1         
12:15 26.03 СВ  5 км  дымка  ясно  +4.7  +4.4  98  +2  +3      989.4         
12:35 26.03 СВ  8 км  дымка  ясно  +5.9  +5.5  97  +4  +4      989.4         
12:55 26.03 СВ  11 км    ясно  +7.1  +6.7  97  +5  +6      989.7         
13:15 26.03 СВ  16 км    ясно  +8.4  +6.9  90  +6  +8      989.7         
13:35 26.03   16 км    ясно  +9.6  +7.0  84  +9  +12      990.0         
13:55 26.03   16 км    ясно  +10.9  +6.9  76  +10  +14      990.4         
14:15 26.03   16 км    ясно  +11.9  +6.6  70  +11  +20      990.0         
14:35 26.03 В  16 км    ясно  +12.8  +6.3  65  +11  +16      990.0         
14:55 26.03 СВ  16 км    ясно  +13.0  +6.1  63  +12  +18      990.4         
15:15 26.03 В  16 км    ясно  +13.8  +5.4  57  +14  +25  опасность
простуды 
  990.4         
15:35 26.03 В  16 км    5/5 840 м  +14.6  +5.4  54  +14  +18      990.4         
15:55 26.03 ЮВ  16 км    ясно  +14.0  +5.0  55  +13  +23      990.4         
16:15 26.03 Ю  16 км    ясно  +14.4  +5.4  55  +14  +26  опасность
простуды 
  990.0         
16:35 26.03 ЮЗ  16 км    ясно  +14.8  +4.7  51  +15  +30  опасность
простуды 
  989.7         
16:55 26.03 ЮВ  16 км    ясно  +16.0  +4.8  47  +16  +27      989.7  +4.0  +16.0     
17:15 26.03   16 км    ясно  +15.8  +4.6  47  +16  +37  опасность
простуды 
  989.4         
17:35 26.03 С  16 км    ясно  +16.4  +4.7  46  +17  +34  опасность
простуды 
  989.1         
17:55 26.03 ЮВ  16 км    ясно  +16.7  +4.3  44  +17  +34  опасность
простуды 
  988.7         
18:15 26.03 ЮВ  16 км    ясно  +16.9  +4.4  43  +17  +34  опасность
простуды 
  988.7         
18:35 26.03 ЮЗ  16 км    ясно  +17.0  +4.6  44  +17  +31  опасность
простуды 
  988.1         
18:55 26.03 Ю  16 км    ясно  +17.4  +4.5  42  +18  +35  опасность
простуды 
  987.8         
19:15 26.03   16 км    ясно  +18.4  +5.0  41  +19  +37  опасность
простуды 
  987.4         
19:35 26.03 В  16 км    ясно  +18.8  +4.6  39  +19  +31  опасность
простуды 
  987.1         
19:55 26.03   16 км    ясно  +18.4  +4.6  40  +19  +37  опасность
простуды 
  987.1         
20:35 26.03 Ю  н/о    ясно  +19.3  +4.5  38  +20  +29      986.5         
20:55 26.03 ЮВ  16 км    ясно  +19.2  +4.7  38  +20  +31      986.1         
21:15 26.03 В  16 км    ясно  +19.5  +3.5  35  +21  +27  комфорт    986.1         

 

Местоположение метеостанции Shawnee Municipal Airport: широта 35.3572 долгота -96.9428 высота над уровнем моря 327 м.

В архиве по умолчанию представлена погода в Шони за последние 1-2 суток. Обновление информации о фактической погоде в базе происходит ежечасно! Архивные данные за месяц целиком и за предыдущие месяцы Вы можете получить, выбрав интересующий диапазон дат из раскрывающегося списка и нажав кнопку "Ввод!".

Внимание! Архив погоды МЕТАР в базе сайта хранится не более 60 дней. Нет смысла пытаться выбрать более раннюю дату.

Внимание! Время в таблицах - всемирное. Для получения местного времени необходимо прибавить поправку, которая в Шони равна -6 ч.

Ветер - указаны скорость ветра в м/с и направление, откуда дует ветер: С - северный, СВ - северо-восточный, В - восточный, ЮВ - юго-восточный, Ю - южный, ЮЗ - юго-западный, З - западный, СЗ - северо-западный.
Видимость - горизонтальная дальность видимости в метрах или километрах. При видимости от 1 до 10 км при отсутствии осадков обычно наблюдается дымка, при ухудшении видимости до 1 км и менее - туман. В сухую погоду видимость может ухудшаться дымом, пылью или мглою.
Атмосферные явления - указаны явления, наблюдавшиеся в указанный момент времени.
Облачность - указаны через наклонную черту верхняя и нижняя облачность в баллах и высота нижней границы облаков в метрах. Внимание: облачность, как и прочие метеорологические величины в США измеряются автоматическими метеостанциями. Указанные значения в баллах носят условный характер и показывают процент времени, в течение которого, в среднем, лазерный луч высотомера отражался от облаков обратно.
T - Температура воздуха - температура, измеренная на высоте 2 м над землей.
Td - Температура точки росы - температура, при понижении до которой содержащийся в воздухе водяной пар достигнет насыщения.
f - Относительная влажность воздуха - влажноcть воздуха, измеренная на высоте 2 м над землей.
Te - Эффективная температура - температура, которую ощущает одетый по сезону человек в тени. Характеристика душности погоды. При расчете учитывается влияние влажности воздуха и скорости ветра на теплоощущения человека.
Tes - Эффективная температура на солнце - температура, которую ощущает человек, с поправкой на солнечный нагрев. Характеристика знойности погоды. Зависит от высоты солнца над горизонтом, облачности и скорости ветра. Ночью, в пасмурную погоду, а также при ветре 12 м/с и более поправка равна нулю.
P - Атмосферное давление - приведенное к уровню моря атмосферное давление.
Po - Атмосферное давление - измеренное на уровне метеостанции атмосферное давление.
Tmin - Минимальная температура - минимум температуры воздуха на высоте 2 м над землей.
Tmax - Максимальная температура - максимум температуры воздуха на высоте 2 м над землей.
R - Количество осадков - Количество выпавших осадков за 3 или 6 часов, мм.
SD - Снежный покров - Высота снежного покрова, см.